GFSGBSN_prec_precacc24_063.txt.gz
Total_Precipitation_Accumulation
0.03 0.02 0.02 0.02 0.02 0.01 0.01 0.02 0.01 0.01 0.00 0.00 0.01 0.01 0.01 0.01 0.00 0.00 0.00 0.00 0.00 0.00 0.00 0.00 0.00 0.00 0.00 0.00 0.00 0.00 0.00 0.00 0.00 0.00 0.00 0.00 0.00 0.00 0.00 0.00 0.00 0.00 0.00 0.00 0.00 0.00 0.00
0.03 0.03 0.02 0.02 0.02 0.01 0.01 0.02 0.02 0.01 0.01 0.01 0.00 0.01 0.01 0.01 0.00 0.00 0.00 0.00 0.00 0.00 0.00 0.00 0.00 0.00 0.00 0.00 0.00 0.00 0.00 0.00 0.00 0.00 0.00 0.00 0.00 0.00 0.00 0.00 0.00 0.00 0.00 0.00 0.00 0.01 0.01
0.03 0.03 0.03 0.03 0.02 0.02 0.01 0.01 0.01 0.01 0.01 0.00 0.01 0.00 0.00 0.01 0.01 0.01 0.00 0.00 0.00 0.00 0.00 0.00 0.00 0.00 0.00 0.00 0.00 0.00 0.00 0.00 0.00 0.00 0.00 0.00 0.00 0.00 0.00 0.00 0.00 0.00 0.01 0.01 0.04 0.02 0.01
0.04 0.04 0.04 0.03 0.03 0.02 0.02 0.01 0.01 0.01 0.01 0.01 0.01 0.00 0.00 0.00 0.00 0.00 0.00 0.00 0.00 0.00 0.00 0.00 0.00 0.00 0.00 0.00 0.00 0.00 0.00 0.00 0.00 0.00 0.00 0.00 0.00 0.00 0.00 0.00 0.00 0.00 0.00 0.02 0.16 0.03 0.01
0.03 0.03 0.04 0.04 0.04 0.03 0.02 0.01 0.01 0.01 0.01 0.01 0.00 0.00 0.00 0.00 0.00 0.00 0.00 0.00 0.00 0.00 0.00 0.00 0.00 0.00 0.00 0.00 0.00 0.00 0.00 0.00 0.00 0.00 0.00 0.00 0.00 0.00 0.00 0.00 0.00 0.00 0.00 0.00 0.01 0.01 0.01
0.03 0.03 0.04 0.04 0.04 0.04 0.03 0.02 0.02 0.01 0.01 0.00 0.00 0.00 0.00 0.00 0.00 0.01 0.00 0.00 0.00 0.00 0.00 0.00 0.00 0.00 0.00 0.00 0.00 0.00 0.00 0.00 0.00 0.00 0.00 0.00 0.00 0.00 0.00 0.00 0.00 0.00 0.00 0.00 0.02 0.01 0.00
0.04 0.04 0.04 0.04 0.04 0.04 0.04 0.04 0.03 0.02 0.01 0.01 0.00 0.00 0.00 0.01 0.01 0.01 0.00 0.00 0.00 0.00 0.00 0.00 0.00 0.00 0.00 0.00 0.00 0.00 0.00 0.00 0.00 0.00 0.00 0.00 0.00 0.00 0.00 0.00 0.00 0.00 0.00 0.00 0.00 0.01 0.00
0.04 0.03 0.03 0.03 0.04 0.03 0.04 0.05 0.05 0.04 0.02 0.01 0.01 0.00 0.01 0.01 0.02 0.02 0.00 0.00 0.00 0.00 0.00 0.00 0.00 0.00 0.00 0.00 0.00 0.00 0.00 0.00 0.00 0.00 0.00 0.00 0.00 0.00 0.00 0.00 0.00 0.00 0.00 0.00 0.00 0.00 0.00
0.04 0.04 0.03 0.03 0.04 0.04 0.04 0.05 0.04 0.04 0.03 0.02 0.01 0.01 0.01 0.02 0.03 0.01 0.00 0.00 0.00 0.00 0.00 0.00 0.00 0.00 0.00 0.00 0.00 0.00 0.00 0.00 0.00 0.00 0.00 0.00 0.00 0.00 0.00 0.00 0.00 0.00 0.00 0.00 0.00 0.00 0.00
0.05 0.04 0.04 0.04 0.04 0.04 0.04 0.04 0.04 0.04 0.03 0.02 0.01 0.01 0.01 0.03 0.01 0.00 0.00 0.00 0.00 0.00 0.00 0.00 0.00 0.00 0.00 0.00 0.00 0.00 0.00 0.00 0.00 0.00 0.00 0.00 0.00 0.00 0.00 0.00 0.00 0.00 0.00 0.00 0.00 0.00 0.00
0.05 0.06 0.06 0.05 0.05 0.04 0.03 0.04 0.04 0.04 0.04 0.04 0.02 0.01 0.02 0.04 0.00 0.00 0.00 0.00 0.00 0.00 0.00 0.00 0.00 0.00 0.00 0.00 0.00 0.00 0.00 0.00 0.00 0.00 0.00 0.00 0.00 0.00 0.00 0.00 0.00 0.00 0.00 0.00 0.00 0.00 0.00
0.05 0.05 0.07 0.08 0.07 0.04 0.04 0.04 0.03 0.04 0.04 0.04 0.03 0.03 0.05 0.05 0.02 0.00 0.00 0.01 0.03 0.00 0.00 0.00 0.00 0.00 0.00 0.00 0.00 0.00 0.00 0.00 0.00 0.00 0.00 0.00 0.00 0.00 0.00 0.00 0.00 0.00 0.00 0.00 0.00 0.00 0.00
0.06 0.06 0.06 0.06 0.08 0.08 0.06 0.04 0.04 0.04 0.05 0.05 0.04 0.05 0.08 0.04 0.02 0.00 0.01 0.11 0.07 0.00 0.00 0.00 0.00 0.00 0.00 0.00 0.00 0.00 0.00 0.00 0.00 0.00 0.00 0.00 0.00 0.00 0.00 0.00 0.00 0.00 0.00 0.01 0.06 0.01 0.00
0.08 0.06 0.07 0.08 0.06 0.08 0.09 0.08 0.05 0.05 0.06 0.05 0.06 0.08 0.10 0.05 0.01 0.02 0.08 0.18 0.03 0.00 0.00 0.00 0.00 0.00 0.00 0.00 0.00 0.00 0.00 0.00 0.00 0.00 0.00 0.00 0.00 0.00 0.00 0.00 0.00 0.00 0.00 0.02 0.10 0.08 0.05
0.14 0.11 0.07 0.07 0.09 0.09 0.09 0.10 0.09 0.08 0.07 0.08 0.14 0.14 0.15 0.06 0.02 0.08 0.27 0.25 0.01 0.00 0.00 0.00 0.00 0.00 0.00 0.00 0.00 0.00 0.00 0.00 0.00 0.00 0.00 0.00 0.00 0.00 0.00 0.00 0.00 0.00 0.00 0.00 0.01 0.02 0.04
0.14 0.17 0.13 0.08 0.07 0.09 0.12 0.10 0.12 0.15 0.16 0.20 0.23 0.19 0.09 0.05 0.10 0.26 0.37 0.17 0.00 0.00 0.00 0.00 0.00 0.00 0.00 0.00 0.00 0.00 0.00 0.00 0.00 0.00 0.00 0.00 0.00 0.00 0.00 0.00 0.00 0.00 0.00 0.00 0.00 0.07 0.06
0.15 0.14 0.17 0.17 0.11 0.08 0.12 0.17 0.15 0.18 0.22 0.30 0.31 0.29 0.06 0.07 0.36 0.47 0.30 0.04 0.00 0.00 0.00 0.00 0.00 0.00 0.00 0.00 0.00 0.00 0.00 0.00 0.00 0.00 0.00 0.00 0.00 0.00 0.00 0.00 0.00 0.00 0.00 0.00 0.00 0.00 0.05
0.20 0.22 0.22 0.20 0.18 0.15 0.14 0.17 0.24 0.20 0.31 0.54 0.51 0.32 0.08 0.13 0.34 0.26 0.05 0.00 0.00 0.00 0.00 0.00 0.00 0.00 0.00 0.00 0.00 0.01 0.00 0.00 0.00 0.00 0.00 0.00 0.00 0.00 0.00 0.00 0.00 0.00 0.00 0.01 0.00 0.00 0.01
0.20 0.17 0.19 0.23 0.30 0.28 0.21 0.20 0.27 0.31 0.35 0.66 0.78 0.32 0.35 0.16 0.16 0.07 0.01 0.00 0.00 0.00 0.00 0.00 0.00 0.00 0.00 0.00 0.00 0.00 0.00 0.00 0.00 0.00 0.00 0.00 0.00 0.00 0.00 0.00 0.01 0.00 0.00 0.00 0.00 0.00 0.01
0.27 0.23 0.19 0.20 0.25 0.36 0.43 0.35 0.32 0.45 0.50 0.77 0.87 0.64 0.82 0.49 0.03 0.00 0.00 0.00 0.00 0.00 0.00 0.00 0.00 0.00 0.00 0.00 0.00 0.00 0.00 0.00 0.00 0.00 0.00 0.00 0.00 0.00 0.00 0.00 0.00 0.00 0.00 0.01 0.00 0.01 0.00
0.31 0.33 0.28 0.24 0.25 0.33 0.38 0.56 0.55 0.52 0.69 1.27 1.43 0.51 0.32 0.29 0.07 0.00 0.00 0.00 0.00 0.00 0.00 0.00 0.00 0.01 0.00 0.00 0.01 0.00 0.01 0.02 0.00 0.00 0.00 0.00 0.00 0.00 0.00 0.00 0.00 0.00 0.00 0.00 0.00 0.00 0.01
0.34 0.34 0.35 0.31 0.33 0.34 0.37 0.39 0.69 0.90 1.00 1.79 1.54 0.21 0.06 0.02 0.01 0.02 0.02 0.00 0.00 0.00 0.00 0.00 0.00 0.00 0.00 0.00 0.01 0.03 0.03 0.07 0.05 0.00 0.00 0.00 0.00 0.00 0.00 0.00 0.00 0.00 0.00 0.00 0.00 0.00 0.00
0.37 0.38 0.37 0.36 0.36 0.37 0.39 0.35 0.43 0.96 1.83 2.79 1.49 0.08 0.08 0.06 0.06 0.05 0.02 0.00 0.00 0.00 0.00 0.00 0.00 0.00 0.01 0.00 0.03 0.12 0.06 0.05 0.10 0.10 0.01 0.00 0.00 0.00 0.00 0.00 0.00 0.00 0.00 0.00 0.00 0.00 0.00
0.39 0.40 0.46 0.45 0.41 0.38 0.39 0.36 0.38 0.58 1.86 2.14 0.99 0.08 0.26 0.25 0.14 0.02 0.00 0.00 0.00 0.00 0.00 0.00 0.00 0.00 0.01 0.01 0.05 0.18 0.11 0.05 0.13 0.09 0.11 0.01 0.00 0.00 0.00 0.00 0.01 0.00 0.00 0.00 0.00 0.00 0.00
0.39 0.38 0.40 0.51 0.49 0.44 0.39 0.37 0.38 0.41 0.89 1.69 0.75 0.08 0.23 0.22 0.07 0.03 0.00 0.00 0.00 0.01 0.00 0.00 0.00 0.00 0.01 0.03 0.09 0.19 0.18 0.13 0.12 0.22 0.17 0.02 0.03 0.07 0.02 0.01 0.00 0.00 0.00 0.00 0.00 0.00 0.00
0.44 0.42 0.38 0.48 0.45 0.42 0.43 0.40 0.32 0.31 0.57 1.08 1.00 0.34 0.35 0.35 0.09 0.03 0.04 0.01 0.01 0.02 0.02 0.00 0.00 0.00 0.01 0.07 0.13 0.11 0.15 0.09 0.08 0.08 0.19 0.16 0.03 0.09 0.08 0.02 0.00 0.00 0.00 0.00 0.00 0.00 0.00
0.44 0.38 0.38 0.44 0.45 0.34 0.31 0.37 0.32 0.30 0.47 0.63 0.83 0.51 0.62 0.57 0.23 0.13 0.12 0.03 0.00 0.02 0.04 0.01 0.01 0.06 0.09 0.12 0.07 0.02 0.02 0.03 0.04 0.03 0.07 0.14 0.08 0.05 0.08 0.09 0.01 0.00 0.00 0.00 0.00 0.00 0.00
0.39 0.37 0.38 0.42 0.47 0.32 0.24 0.30 0.33 0.36 0.52 0.52 0.56 0.43 0.78 0.52 0.29 0.28 0.24 0.16 0.03 0.04 0.06 0.02 0.11 0.13 0.26 0.16 0.07 0.03 0.01 0.00 0.02 0.00 0.00 0.02 0.07 0.08 0.10 0.08 0.02 0.00 0.00 0.00 0.00 0.00 0.00
0.34 0.33 0.36 0.41 0.44 0.29 0.22 0.27 0.35 0.48 0.58 0.52 0.54 0.48 0.66 0.66 0.51 0.39 0.26 0.24 0.09 0.03 0.04 0.02 0.05 0.04 0.08 0.14 0.05 0.03 0.02 0.01 0.01 0.01 0.00 0.01 0.02 0.04 0.03 0.01 0.01 0.01 0.00 0.00 0.00 0.00 0.00

GFSGBSN_prec_precacc24_069.txt.gz
Total_Precipitation_Accumulation
0.03 0.03 0.03 0.02 0.02 0.01 0.01 0.01 0.01 0.01 0.00 0.00 0.01 0.01 0.01 0.01 0.00 0.00 0.00 0.00 0.00 0.00 0.00 0.00 0.00 0.00 0.00 0.00 0.00 0.00 0.00 0.00 0.00 0.00 0.00 0.00 0.00 0.00 0.00 0.00 0.00 0.00 0.00 0.00 0.00 0.00 0.00
0.04 0.04 0.04 0.03 0.02 0.01 0.01 0.02 0.01 0.01 0.00 0.01 0.00 0.01 0.01 0.01 0.00 0.00 0.00 0.00 0.00 0.00 0.00 0.00 0.00 0.00 0.00 0.00 0.00 0.00 0.00 0.00 0.00 0.00 0.00 0.00 0.00 0.00 0.00 0.00 0.00 0.00 0.00 0.00 0.00 0.00 0.00
0.04 0.04 0.04 0.04 0.03 0.02 0.02 0.02 0.01 0.01 0.00 0.01 0.01 0.00 0.00 0.01 0.01 0.01 0.00 0.00 0.00 0.00 0.00 0.00 0.00 0.01 0.00 0.00 0.00 0.00 0.00 0.00 0.00 0.00 0.00 0.00 0.00 0.00 0.00 0.00 0.00 0.00 0.00 0.00 0.03 0.01 0.00
0.04 0.04 0.04 0.04 0.04 0.04 0.02 0.01 0.01 0.01 0.01 0.01 0.01 0.01 0.00 0.00 0.00 0.00 0.00 0.00 0.00 0.00 0.00 0.00 0.00 0.01 0.00 0.00 0.00 0.00 0.00 0.00 0.00 0.00 0.00 0.00 0.00 0.00 0.00 0.00 0.00 0.00 0.00 0.01 0.15 0.02 0.00
0.03 0.03 0.04 0.04 0.04 0.03 0.03 0.02 0.02 0.01 0.01 0.01 0.00 0.00 0.00 0.00 0.00 0.00 0.00 0.00 0.00 0.00 0.00 0.00 0.00 0.00 0.00 0.00 0.00 0.00 0.00 0.00 0.00 0.00 0.00 0.00 0.00 0.00 0.00 0.00 0.00 0.00 0.00 0.00 0.01 0.01 0.01
0.03 0.03 0.03 0.04 0.04 0.04 0.04 0.03 0.02 0.02 0.02 0.01 0.01 0.00 0.00 0.00 0.00 0.01 0.00 0.00 0.00 0.00 0.00 0.00 0.00 0.00 0.00 0.00 0.00 0.00 0.00 0.00 0.00 0.00 0.00 0.00 0.00 0.00 0.00 0.00 0.00 0.00 0.00 0.00 0.02 0.01 0.00
0.04 0.04 0.04 0.04 0.04 0.04 0.04 0.05 0.04 0.02 0.02 0.02 0.01 0.01 0.00 0.01 0.01 0.01 0.00 0.00 0.00 0.00 0.00 0.00 0.00 0.00 0.00 0.00 0.00 0.00 0.00 0.00 0.00 0.00 0.00 0.00 0.00 0.00 0.00 0.00 0.00 0.00 0.00 0.00 0.00 0.01 0.00
0.03 0.03 0.02 0.03 0.04 0.04 0.05 0.06 0.06 0.04 0.02 0.02 0.01 0.01 0.01 0.01 0.02 0.02 0.00 0.00 0.00 0.00 0.00 0.00 0.00 0.00 0.00 0.00 0.00 0.00 0.00 0.00 0.00 0.00 0.00 0.00 0.00 0.00 0.00 0.00 0.00 0.00 0.00 0.00 0.00 0.00 0.00
0.03 0.04 0.03 0.03 0.03 0.04 0.04 0.06 0.06 0.05 0.04 0.02 0.01 0.01 0.01 0.02 0.04 0.01 0.00 0.00 0.00 0.00 0.00 0.00 0.00 0.00 0.00 0.00 0.00 0.00 0.00 0.00 0.00 0.00 0.00 0.00 0.00 0.00 0.00 0.00 0.00 0.00 0.00 0.00 0.00 0.00 0.00
0.03 0.03 0.04 0.03 0.04 0.04 0.03 0.04 0.05 0.05 0.04 0.03 0.01 0.01 0.01 0.03 0.01 0.00 0.00 0.00 0.00 0.00 0.00 0.00 0.00 0.00 0.00 0.00 0.00 0.00 0.00 0.00 0.00 0.00 0.00 0.00 0.00 0.00 0.00 0.00 0.00 0.00 0.00 0.00 0.00 0.00 0.00
0.03 0.03 0.03 0.05 0.05 0.04 0.03 0.04 0.04 0.05 0.05 0.04 0.03 0.02 0.01 0.04 0.00 0.00 0.00 0.00 0.00 0.00 0.00 0.00 0.00 0.00 0.00 0.00 0.00 0.00 0.00 0.00 0.00 0.00 0.00 0.00 0.00 0.00 0.00 0.00 0.00 0.00 0.00 0.00 0.00 0.00 0.00
0.03 0.03 0.03 0.05 0.06 0.04 0.04 0.04 0.04 0.05 0.05 0.05 0.04 0.03 0.05 0.05 0.02 0.00 0.00 0.01 0.03 0.00 0.00 0.00 0.00 0.00 0.00 0.00 0.00 0.00 0.00 0.00 0.00 0.00 0.00 0.00 0.00 0.00 0.00 0.00 0.00 0.00 0.00 0.00 0.00 0.00 0.00
0.03 0.03 0.03 0.03 0.05 0.07 0.07 0.06 0.06 0.07 0.07 0.06 0.06 0.06 0.09 0.04 0.02 0.00 0.01 0.11 0.09 0.00 0.00 0.00 0.00 0.00 0.00 0.00 0.00 0.00 0.00 0.00 0.00 0.00 0.00 0.00 0.00 0.00 0.00 0.00 0.00 0.00 0.00 0.01 0.06 0.01 0.00
0.06 0.04 0.03 0.04 0.04 0.06 0.09 0.09 0.08 0.08 0.10 0.10 0.10 0.11 0.11 0.04 0.01 0.02 0.09 0.21 0.05 0.00 0.00 0.00 0.00 0.00 0.00 0.00 0.00 0.00 0.00 0.00 0.00 0.00 0.00 0.00 0.00 0.00 0.00 0.00 0.00 0.00 0.00 0.02 0.10 0.08 0.05
0.08 0.07 0.05 0.05 0.05 0.05 0.08 0.10 0.11 0.11 0.12 0.14 0.21 0.19 0.16 0.06 0.02 0.09 0.30 0.37 0.02 0.00 0.00 0.00 0.00 0.00 0.00 0.00 0.00 0.00 0.00 0.00 0.00 0.00 0.00 0.00 0.00 0.00 0.00 0.00 0.00 0.00 0.00 0.00 0.01 0.02 0.04
0.12 0.11 0.08 0.07 0.06 0.06 0.10 0.10 0.13 0.17 0.22 0.27 0.31 0.22 0.08 0.05 0.10 0.27 0.40 0.19 0.00 0.00 0.00 0.00 0.00 0.00 0.00 0.00 0.00 0.00 0.00 0.00 0.00 0.00 0.00 0.00 0.00 0.00 0.00 0.00 0.00 0.00 0.00 0.00 0.00 0.07 0.06
0.14 0.12 0.11 0.10 0.09 0.07 0.10 0.17 0.14 0.19 0.27 0.44 0.61 0.45 0.09 0.07 0.37 0.49 0.32 0.04 0.00 0.00 0.00 0.00 0.00 0.00 0.00 0.00 0.00 0.01 0.00 0.00 0.00 0.00 0.00 0.00 0.00 0.00 0.00 0.00 0.00 0.00 0.00 0.00 0.00 0.00 0.05
0.19 0.21 0.20 0.15 0.12 0.11 0.12 0.17 0.25 0.20 0.38 0.99 1.20 0.60 0.10 0.14 0.39 0.26 0.05 0.00 0.00 0.00 0.00 0.00 0.00 0.00 0.00 0.00 0.00 0.01 0.00 0.00 0.00 0.00 0.00 0.00 0.00 0.00 0.00 0.00 0.00 0.00 0.00 0.00 0.00 0.00 0.01
0.17 0.16 0.17 0.22 0.26 0.25 0.20 0.22 0.30 0.33 0.52 1.30 1.55 0.55 0.38 0.16 0.19 0.07 0.01 0.00 0.00 0.00 0.00 0.00 0.00 0.00 0.00 0.00 0.00 0.00 0.00 0.00 0.00 0.00 0.00 0.00 0.00 0.00 0.00 0.00 0.00 0.00 0.00 0.00 0.00 0.00 0.01
0.21 0.21 0.18 0.19 0.22 0.31 0.42 0.39 0.38 0.53 0.69 1.52 1.69 0.91 0.94 0.56 0.03 0.00 0.00 0.00 0.00 0.00 0.00 0.00 0.00 0.00 0.00 0.00 0.00 0.00 0.00 0.00 0.00 0.00 0.00 0.00 0.00 0.00 0.00 0.00 0.00 0.00 0.00 0.00 0.00 0.01 0.00
0.23 0.30 0.28 0.24 0.23 0.28 0.36 0.55 0.61 0.58 0.90 2.18 2.32 0.70 0.38 0.37 0.12 0.00 0.00 0.00 0.00 0.00 0.00 0.00 0.00 0.01 0.00 0.00 0.01 0.00 0.01 0.02 0.00 0.00 0.00 0.01 0.01 0.00 0.00 0.00 0.00 0.00 0.00 0.00 0.00 0.00 0.01
0.26 0.31 0.35 0.33 0.32 0.33 0.34 0.39 0.73 0.92 1.22 2.81 2.40 0.29 0.06 0.02 0.02 0.03 0.02 0.00 0.00 0.00 0.00 0.00 0.00 0.00 0.00 0.00 0.01 0.03 0.03 0.07 0.05 0.01 0.01 0.02 0.01 0.00 0.00 0.00 0.00 0.00 0.00 0.00 0.00 0.00 0.00
0.29 0.35 0.38 0.38 0.38 0.36 0.39 0.35 0.46 0.97 1.92 3.59 2.12 0.14 0.07 0.06 0.05 0.08 0.03 0.00 0.00 0.00 0.00 0.00 0.00 0.00 0.01 0.00 0.03 0.13 0.07 0.05 0.11 0.12 0.06 0.06 0.08 0.04 0.01 0.00 0.00 0.01 0.00 0.00 0.00 0.00 0.00
0.33 0.38 0.47 0.49 0.46 0.41 0.42 0.38 0.43 0.62 1.78 2.42 1.41 0.14 0.30 0.34 0.13 0.02 0.00 0.00 0.00 0.00 0.00 0.00 0.00 0.00 0.01 0.01 0.07 0.21 0.12 0.05 0.14 0.10 0.16 0.16 0.11 0.14 0.07 0.02 0.10 0.03 0.00 0.00 0.00 0.00 0.00
0.32 0.36 0.42 0.54 0.53 0.48 0.43 0.40 0.41 0.48 0.82 1.76 1.16 0.27 0.20 0.22 0.07 0.02 0.00 0.00 0.00 0.01 0.00 0.00 0.00 0.00 0.00 0.03 0.08 0.17 0.17 0.13 0.11 0.21 0.20 0.15 0.19 0.28 0.14 0.07 0.05 0.00 0.00 0.00 0.00 0.00 0.00
0.36 0.38 0.38 0.49 0.46 0.44 0.47 0.43 0.34 0.33 0.53 1.03 1.30 0.63 0.41 0.30 0.10 0.02 0.03 0.01 0.01 0.01 0.02 0.00 0.00 0.00 0.00 0.03 0.10 0.11 0.15 0.10 0.08 0.08 0.21 0.35 0.23 0.24 0.25 0.15 0.07 0.00 0.00 0.00 0.00 0.00 0.00
0.40 0.37 0.38 0.45 0.45 0.35 0.33 0.40 0.36 0.31 0.44 0.57 0.93 0.61 1.00 0.81 0.17 0.10 0.11 0.03 0.00 0.01 0.03 0.01 0.00 0.03 0.06 0.08 0.05 0.02 0.02 0.04 0.05 0.04 0.08 0.23 0.35 0.31 0.27 0.21 0.04 0.00 0.00 0.00 0.01 0.01 0.00
0.36 0.37 0.40 0.43 0.45 0.32 0.25 0.30 0.36 0.41 0.54 0.52 0.61 0.40 0.85 0.94 0.25 0.21 0.22 0.16 0.03 0.03 0.05 0.02 0.07 0.08 0.17 0.10 0.05 0.02 0.01 0.01 0.02 0.01 0.01 0.05 0.17 0.25 0.30 0.26 0.10 0.02 0.06 0.07 0.02 0.00 0.00
0.35 0.34 0.37 0.42 0.42 0.32 0.26 0.27 0.36 0.51 0.65 0.64 0.75 0.48 0.56 0.78 0.48 0.32 0.22 0.23 0.09 0.03 0.03 0.01 0.03 0.02 0.05 0.10 0.04 0.02 0.02 0.01 0.01 0.01 0.00 0.02 0.02 0.05 0.07 0.05 0.01 0.03 0.08 0.09 0.04 0.01 0.01

GFSGBSN_prec_precacc24_072.txt.gz
Total_Precipitation_Accumulation
0.03 0.03 0.03 0.03 0.02 0.02 0.01 0.02 0.01 0.01 0.00 0.00 0.01 0.01 0.01 0.01 0.00 0.00 0.00 0.00 0.00 0.00 0.00 0.00 0.00 0.00 0.00 0.00 0.00 0.00 0.00 0.00 0.00 0.00 0.00 0.00 0.00 0.00 0.00 0.00 0.00 0.00 0.00 0.00 0.00 0.00 0.00
0.04 0.04 0.04 0.03 0.02 0.02 0.02 0.02 0.02 0.01 0.01 0.00 0.00 0.01 0.01 0.01 0.00 0.00 0.00 0.00 0.00 0.00 0.00 0.00 0.00 0.00 0.00 0.00 0.00 0.00 0.00 0.00 0.00 0.00 0.00 0.00 0.00 0.00 0.00 0.00 0.00 0.00 0.00 0.00 0.00 0.00 0.00
0.03 0.04 0.04 0.04 0.03 0.02 0.02 0.02 0.01 0.01 0.01 0.01 0.01 0.00 0.00 0.01 0.01 0.01 0.00 0.00 0.00 0.00 0.00 0.00 0.00 0.01 0.00 0.00 0.00 0.00 0.00 0.00 0.00 0.00 0.00 0.00 0.00 0.00 0.00 0.00 0.00 0.00 0.00 0.00 0.03 0.00 0.00
0.04 0.04 0.04 0.05 0.04 0.03 0.02 0.02 0.01 0.01 0.01 0.01 0.01 0.01 0.00 0.00 0.00 0.00 0.00 0.00 0.00 0.00 0.00 0.00 0.00 0.01 0.00 0.00 0.00 0.00 0.00 0.00 0.00 0.00 0.00 0.00 0.00 0.00 0.00 0.00 0.00 0.00 0.00 0.01 0.15 0.02 0.00
0.03 0.03 0.03 0.04 0.04 0.03 0.03 0.02 0.02 0.01 0.01 0.01 0.00 0.00 0.00 0.00 0.00 0.00 0.00 0.00 0.00 0.00 0.00 0.00 0.00 0.00 0.00 0.00 0.00 0.00 0.00 0.00 0.00 0.00 0.00 0.00 0.00 0.00 0.00 0.00 0.00 0.00 0.00 0.00 0.01 0.01 0.01
0.03 0.03 0.03 0.03 0.04 0.04 0.04 0.03 0.02 0.02 0.02 0.01 0.01 0.00 0.00 0.00 0.00 0.01 0.00 0.00 0.00 0.00 0.00 0.00 0.01 0.00 0.00 0.00 0.00 0.00 0.00 0.00 0.00 0.00 0.00 0.00 0.00 0.00 0.00 0.00 0.00 0.00 0.00 0.00 0.02 0.01 0.00
0.03 0.03 0.03 0.03 0.03 0.03 0.04 0.04 0.04 0.03 0.02 0.02 0.02 0.01 0.00 0.00 0.00 0.01 0.00 0.00 0.00 0.00 0.00 0.00 0.00 0.00 0.00 0.00 0.00 0.00 0.00 0.00 0.00 0.00 0.00 0.00 0.00 0.00 0.00 0.00 0.00 0.00 0.00 0.00 0.00 0.01 0.00
0.02 0.02 0.02 0.03 0.03 0.03 0.04 0.06 0.05 0.04 0.03 0.02 0.02 0.01 0.01 0.01 0.02 0.02 0.00 0.00 0.00 0.00 0.00 0.00 0.00 0.00 0.00 0.00 0.00 0.00 0.00 0.00 0.00 0.00 0.00 0.00 0.00 0.00 0.00 0.00 0.00 0.00 0.00 0.00 0.00 0.00 0.00
0.03 0.03 0.02 0.02 0.03 0.03 0.04 0.05 0.05 0.05 0.04 0.03 0.02 0.02 0.01 0.01 0.03 0.01 0.00 0.00 0.00 0.00 0.00 0.00 0.00 0.00 0.00 0.00 0.00 0.00 0.00 0.00 0.00 0.00 0.00 0.00 0.00 0.00 0.00 0.00 0.00 0.00 0.00 0.00 0.00 0.00 0.00
0.04 0.04 0.03 0.02 0.03 0.03 0.03 0.04 0.04 0.04 0.04 0.03 0.01 0.01 0.01 0.01 0.01 0.00 0.00 0.00 0.00 0.00 0.00 0.00 0.00 0.00 0.00 0.00 0.00 0.00 0.00 0.00 0.00 0.00 0.00 0.00 0.00 0.00 0.00 0.00 0.00 0.00 0.00 0.00 0.00 0.00 0.00
0.04 0.04 0.04 0.04 0.04 0.04 0.03 0.03 0.04 0.04 0.04 0.05 0.03 0.03 0.02 0.02 0.00 0.00 0.00 0.00 0.00 0.00 0.00 0.00 0.00 0.00 0.00 0.00 0.00 0.00 0.00 0.00 0.00 0.00 0.00 0.00 0.00 0.00 0.00 0.00 0.00 0.00 0.00 0.00 0.00 0.00 0.00
0.04 0.04 0.04 0.04 0.05 0.03 0.03 0.04 0.04 0.05 0.05 0.05 0.06 0.06 0.08 0.04 0.01 0.00 0.00 0.01 0.03 0.01 0.00 0.00 0.00 0.00 0.00 0.00 0.00 0.00 0.00 0.00 0.00 0.00 0.00 0.00 0.00 0.00 0.00 0.00 0.00 0.00 0.00 0.00 0.00 0.00 0.00
0.04 0.04 0.04 0.04 0.04 0.05 0.05 0.06 0.06 0.06 0.06 0.06 0.06 0.09 0.11 0.03 0.01 0.00 0.01 0.10 0.10 0.01 0.00 0.00 0.00 0.00 0.00 0.00 0.00 0.00 0.00 0.00 0.00 0.00 0.00 0.00 0.00 0.00 0.00 0.00 0.00 0.00 0.00 0.01 0.06 0.01 0.00
0.06 0.04 0.04 0.04 0.04 0.04 0.05 0.07 0.08 0.07 0.09 0.10 0.11 0.14 0.12 0.04 0.01 0.02 0.09 0.20 0.05 0.00 0.00 0.00 0.00 0.00 0.00 0.00 0.00 0.00 0.00 0.00 0.00 0.00 0.00 0.00 0.00 0.00 0.00 0.00 0.00 0.00 0.00 0.02 0.10 0.08 0.05
0.08 0.06 0.06 0.05 0.05 0.05 0.06 0.07 0.09 0.11 0.12 0.14 0.23 0.21 0.16 0.06 0.02 0.09 0.29 0.37 0.02 0.00 0.00 0.00 0.00 0.00 0.00 0.00 0.00 0.00 0.00 0.00 0.00 0.00 0.00 0.00 0.00 0.00 0.00 0.00 0.00 0.00 0.00 0.00 0.01 0.02 0.04
0.10 0.10 0.08 0.07 0.07 0.06 0.07 0.08 0.10 0.16 0.22 0.30 0.34 0.26 0.09 0.05 0.10 0.26 0.40 0.19 0.00 0.00 0.00 0.00 0.00 0.00 0.00 0.00 0.00 0.00 0.00 0.00 0.00 0.00 0.00 0.00 0.00 0.00 0.00 0.00 0.00 0.00 0.00 0.00 0.00 0.07 0.06
0.12 0.10 0.09 0.10 0.09 0.07 0.08 0.11 0.12 0.17 0.26 0.47 0.72 0.62 0.14 0.07 0.36 0.47 0.32 0.04 0.00 0.00 0.00 0.00 0.00 0.00 0.00 0.00 0.00 0.01 0.00 0.00 0.00 0.00 0.00 0.00 0.00 0.00 0.00 0.00 0.00 0.00 0.00 0.00 0.00 0.00 0.05
0.14 0.17 0.17 0.14 0.12 0.11 0.11 0.14 0.17 0.18 0.38 1.10 1.48 0.87 0.15 0.14 0.45 0.29 0.06 0.00 0.00 0.00 0.00 0.00 0.00 0.00 0.00 0.00 0.00 0.01 0.00 0.00 0.00 0.00 0.00 0.00 0.00 0.00 0.00 0.00 0.00 0.00 0.00 0.00 0.00 0.00 0.01
0.09 0.11 0.14 0.19 0.25 0.25 0.20 0.20 0.23 0.27 0.54 1.50 1.92 0.78 0.48 0.16 0.23 0.08 0.01 0.00 0.00 0.00 0.00 0.00 0.00 0.00 0.00 0.00 0.00 0.00 0.00 0.00 0.00 0.00 0.00 0.00 0.00 0.00 0.00 0.00 0.00 0.00 0.00 0.00 0.00 0.00 0.01
0.08 0.09 0.12 0.15 0.21 0.31 0.41 0.37 0.36 0.48 0.70 1.75 2.17 1.14 1.14 0.70 0.04 0.00 0.00 0.00 0.00 0.00 0.00 0.00 0.00 0.00 0.00 0.00 0.00 0.00 0.00 0.00 0.00 0.00 0.00 0.00 0.00 0.00 0.00 0.00 0.00 0.00 0.00 0.00 0.00 0.01 0.00
0.10 0.11 0.13 0.16 0.21 0.26 0.34 0.53 0.58 0.58 0.94 2.49 2.85 0.91 0.45 0.45 0.14 0.00 0.00 0.00 0.00 0.00 0.00 0.00 0.00 0.01 0.00 0.00 0.01 0.00 0.01 0.02 0.00 0.00 0.00 0.02 0.01 0.00 0.00 0.00 0.00 0.00 0.00 0.00 0.00 0.00 0.01
0.15 0.14 0.18 0.21 0.27 0.31 0.32 0.37 0.71 0.94 1.31 3.13 2.85 0.38 0.08 0.02 0.02 0.03 0.02 0.01 0.00 0.00 0.00 0.00 0.00 0.00 0.00 0.00 0.01 0.03 0.03 0.07 0.05 0.01 0.01 0.02 0.01 0.00 0.00 0.00 0.00 0.00 0.00 0.00 0.00 0.00 0.00
0.20 0.20 0.22 0.27 0.31 0.34 0.36 0.36 0.46 1.02 2.09 3.94 2.34 0.17 0.07 0.07 0.06 0.09 0.03 0.00 0.00 0.00 0.00 0.00 0.00 0.00 0.01 0.00 0.03 0.13 0.07 0.05 0.11 0.12 0.06 0.07 0.08 0.04 0.02 0.00 0.00 0.01 0.00 0.00 0.00 0.00 0.00
0.21 0.25 0.33 0.41 0.42 0.40 0.40 0.38 0.46 0.67 1.97 2.70 1.45 0.15 0.32 0.39 0.13 0.03 0.00 0.00 0.00 0.00 0.00 0.00 0.00 0.00 0.01 0.01 0.07 0.21 0.12 0.05 0.14 0.11 0.18 0.18 0.13 0.14 0.07 0.02 0.11 0.04 0.00 0.00 0.00 0.00 0.00
0.20 0.20 0.28 0.47 0.49 0.48 0.44 0.40 0.44 0.55 0.97 1.95 1.25 0.29 0.17 0.23 0.07 0.02 0.00 0.00 0.00 0.01 0.00 0.00 0.00 0.00 0.00 0.03 0.08 0.17 0.17 0.13 0.11 0.22 0.21 0.17 0.20 0.29 0.14 0.07 0.05 0.00 0.00 0.00 0.00 0.00 0.00
0.23 0.21 0.25 0.42 0.42 0.45 0.48 0.45 0.39 0.41 0.68 1.22 1.36 0.69 0.41 0.26 0.12 0.02 0.03 0.01 0.01 0.01 0.02 0.00 0.00 0.00 0.00 0.04 0.11 0.12 0.14 0.10 0.09 0.09 0.22 0.36 0.24 0.26 0.25 0.16 0.07 0.00 0.00 0.00 0.00 0.00 0.00
0.26 0.24 0.28 0.38 0.39 0.34 0.34 0.43 0.44 0.41 0.59 0.78 0.98 0.63 1.10 0.82 0.18 0.09 0.11 0.05 0.01 0.01 0.03 0.01 0.00 0.03 0.06 0.10 0.07 0.03 0.02 0.03 0.05 0.05 0.09 0.26 0.37 0.32 0.28 0.22 0.04 0.00 0.00 0.00 0.01 0.01 0.00
0.23 0.25 0.30 0.38 0.43 0.32 0.25 0.31 0.40 0.49 0.63 0.71 0.70 0.32 0.90 1.02 0.31 0.20 0.20 0.16 0.03 0.03 0.05 0.02 0.08 0.08 0.17 0.10 0.04 0.01 0.00 0.00 0.01 0.01 0.01 0.06 0.18 0.26 0.31 0.27 0.10 0.02 0.06 0.08 0.03 0.01 0.00
0.25 0.26 0.32 0.40 0.43 0.35 0.26 0.27 0.36 0.55 0.70 0.72 0.79 0.28 0.51 0.89 0.53 0.35 0.22 0.23 0.09 0.03 0.03 0.01 0.03 0.02 0.05 0.10 0.04 0.01 0.01 0.01 0.01 0.01 0.00 0.02 0.02 0.05 0.07 0.05 0.01 0.03 0.08 0.09 0.08 0.06 0.04

GFSGBSN_prec_precacc24_075.txt.gz
Total_Precipitation_Accumulation
0.03 0.03 0.03 0.02 0.02 0.02 0.01 0.02 0.02 0.01 0.00 0.00 0.00 0.00 0.00 0.00 0.00 0.00 0.00 0.00 0.00 0.00 0.00 0.00 0.00 0.00 0.00 0.00 0.00 0.00 0.00 0.00 0.00 0.00 0.00 0.00 0.00 0.00 0.00 0.00 0.00 0.00 0.00 0.00 0.00 0.00 0.00
0.03 0.04 0.04 0.03 0.02 0.02 0.02 0.02 0.02 0.01 0.01 0.00 0.00 0.00 0.00 0.00 0.00 0.00 0.00 0.00 0.00 0.00 0.00 0.00 0.00 0.00 0.00 0.00 0.00 0.00 0.00 0.00 0.00 0.00 0.00 0.00 0.00 0.00 0.00 0.00 0.00 0.00 0.00 0.00 0.00 0.00 0.00
0.04 0.04 0.04 0.04 0.04 0.03 0.02 0.02 0.01 0.01 0.01 0.01 0.01 0.00 0.00 0.00 0.00 0.00 0.00 0.00 0.00 0.00 0.00 0.00 0.00 0.01 0.00 0.00 0.00 0.00 0.00 0.00 0.00 0.00 0.00 0.00 0.00 0.00 0.00 0.00 0.00 0.00 0.00 0.00 0.03 0.00 0.00
0.03 0.04 0.04 0.05 0.04 0.03 0.02 0.02 0.01 0.01 0.01 0.01 0.01 0.01 0.00 0.00 0.00 0.00 0.00 0.00 0.00 0.00 0.00 0.00 0.00 0.01 0.00 0.00 0.00 0.00 0.00 0.00 0.00 0.00 0.00 0.00 0.00 0.00 0.00 0.00 0.00 0.00 0.00 0.01 0.15 0.02 0.00
0.03 0.03 0.03 0.04 0.03 0.03 0.02 0.02 0.02 0.02 0.01 0.01 0.00 0.00 0.00 0.00 0.00 0.00 0.00 0.00 0.00 0.00 0.00 0.00 0.00 0.00 0.00 0.00 0.00 0.00 0.00 0.00 0.00 0.00 0.00 0.00 0.00 0.00 0.00 0.00 0.00 0.00 0.00 0.00 0.01 0.01 0.01
0.03 0.03 0.03 0.03 0.03 0.03 0.03 0.03 0.02 0.02 0.02 0.02 0.01 0.00 0.00 0.00 0.00 0.00 0.00 0.00 0.00 0.00 0.00 0.00 0.01 0.00 0.00 0.00 0.00 0.00 0.00 0.00 0.00 0.00 0.00 0.00 0.00 0.00 0.00 0.00 0.00 0.00 0.00 0.00 0.01 0.01 0.00
0.03 0.04 0.03 0.03 0.03 0.03 0.03 0.04 0.04 0.03 0.02 0.02 0.02 0.02 0.00 0.00 0.00 0.00 0.00 0.00 0.00 0.00 0.00 0.00 0.00 0.00 0.00 0.00 0.00 0.00 0.00 0.00 0.00 0.00 0.00 0.00 0.00 0.00 0.00 0.00 0.00 0.00 0.00 0.00 0.00 0.00 0.00
0.04 0.03 0.02 0.02 0.03 0.03 0.04 0.05 0.05 0.04 0.03 0.02 0.02 0.01 0.01 0.01 0.01 0.00 0.00 0.00 0.00 0.00 0.00 0.00 0.00 0.00 0.00 0.00 0.00 0.00 0.00 0.00 0.00 0.00 0.00 0.00 0.00 0.00 0.00 0.00 0.00 0.00 0.00 0.00 0.00 0.00 0.00
0.04 0.04 0.03 0.02 0.02 0.03 0.03 0.04 0.05 0.04 0.04 0.02 0.01 0.02 0.01 0.00 0.01 0.00 0.00 0.00 0.00 0.00 0.00 0.00 0.00 0.00 0.00 0.00 0.00 0.00 0.00 0.00 0.00 0.00 0.00 0.00 0.00 0.00 0.00 0.00 0.00 0.00 0.00 0.00 0.00 0.00 0.00
0.05 0.05 0.04 0.03 0.04 0.03 0.03 0.03 0.04 0.04 0.03 0.02 0.01 0.01 0.01 0.00 0.00 0.00 0.00 0.00 0.00 0.00 0.00 0.00 0.00 0.00 0.00 0.00 0.00 0.00 0.00 0.00 0.00 0.00 0.00 0.00 0.00 0.00 0.00 0.00 0.00 0.00 0.00 0.00 0.00 0.00 0.00
0.05 0.05 0.05 0.05 0.05 0.04 0.02 0.02 0.03 0.03 0.04 0.04 0.03 0.03 0.02 0.02 0.00 0.00 0.00 0.00 0.00 0.00 0.00 0.00 0.00 0.00 0.00 0.00 0.00 0.00 0.00 0.00 0.00 0.00 0.00 0.00 0.00 0.00 0.00 0.00 0.00 0.00 0.00 0.00 0.00 0.00 0.00
0.04 0.04 0.04 0.05 0.06 0.04 0.04 0.04 0.03 0.04 0.04 0.05 0.05 0.06 0.09 0.04 0.01 0.00 0.00 0.01 0.03 0.02 0.00 0.00 0.00 0.00 0.00 0.00 0.00 0.00 0.00 0.00 0.00 0.00 0.00 0.00 0.00 0.00 0.00 0.00 0.00 0.00 0.00 0.00 0.00 0.00 0.00
0.04 0.04 0.04 0.04 0.05 0.06 0.06 0.05 0.05 0.05 0.06 0.05 0.06 0.09 0.14 0.02 0.01 0.00 0.01 0.10 0.10 0.01 0.00 0.00 0.00 0.00 0.00 0.00 0.00 0.00 0.00 0.00 0.00 0.00 0.00 0.00 0.00 0.00 0.00 0.00 0.00 0.00 0.00 0.01 0.06 0.01 0.00
0.06 0.04 0.04 0.05 0.04 0.05 0.06 0.07 0.06 0.05 0.07 0.10 0.11 0.15 0.13 0.04 0.00 0.02 0.08 0.19 0.06 0.00 0.00 0.00 0.00 0.00 0.00 0.00 0.00 0.00 0.00 0.00 0.00 0.00 0.00 0.01 0.01 0.00 0.00 0.00 0.00 0.00 0.00 0.02 0.10 0.08 0.05
0.07 0.07 0.06 0.06 0.05 0.05 0.06 0.08 0.07 0.07 0.09 0.12 0.25 0.21 0.18 0.06 0.02 0.08 0.29 0.36 0.02 0.00 0.00 0.00 0.00 0.00 0.00 0.00 0.00 0.00 0.00 0.00 0.00 0.00 0.00 0.00 0.00 0.00 0.00 0.00 0.00 0.00 0.00 0.00 0.01 0.02 0.04
0.08 0.08 0.08 0.07 0.06 0.06 0.07 0.08 0.09 0.11 0.16 0.29 0.35 0.28 0.11 0.06 0.10 0.25 0.43 0.19 0.00 0.00 0.00 0.00 0.00 0.00 0.00 0.00 0.00 0.00 0.00 0.00 0.00 0.00 0.00 0.00 0.00 0.00 0.00 0.00 0.00 0.00 0.00 0.00 0.00 0.07 0.06
0.10 0.09 0.08 0.08 0.08 0.07 0.08 0.10 0.12 0.13 0.18 0.46 0.74 0.69 0.16 0.06 0.40 0.56 0.38 0.05 0.00 0.00 0.00 0.00 0.00 0.00 0.00 0.00 0.00 0.01 0.00 0.00 0.00 0.00 0.00 0.00 0.00 0.00 0.00 0.00 0.00 0.00 0.00 0.00 0.00 0.00 0.05
0.13 0.15 0.14 0.10 0.08 0.09 0.10 0.13 0.16 0.17 0.29 1.05 1.56 1.00 0.19 0.15 0.59 0.42 0.09 0.00 0.00 0.00 0.00 0.00 0.00 0.00 0.00 0.00 0.00 0.01 0.00 0.00 0.00 0.00 0.00 0.00 0.00 0.00 0.00 0.00 0.00 0.00 0.00 0.00 0.00 0.00 0.01
0.08 0.08 0.08 0.13 0.19 0.20 0.17 0.19 0.23 0.25 0.50 1.40 2.02 0.88 0.56 0.16 0.31 0.14 0.03 0.00 0.00 0.00 0.00 0.00 0.00 0.00 0.00 0.00 0.00 0.00 0.00 0.00 0.00 0.00 0.00 0.00 0.00 0.00 0.00 0.00 0.00 0.00 0.00 0.00 0.00 0.00 0.01
0.07 0.06 0.07 0.07 0.10 0.20 0.33 0.34 0.35 0.41 0.67 1.72 2.28 1.28 1.26 0.91 0.07 0.01 0.01 0.01 0.00 0.00 0.00 0.00 0.00 0.00 0.00 0.00 0.00 0.00 0.00 0.00 0.00 0.00 0.00 0.00 0.00 0.00 0.00 0.00 0.00 0.00 0.00 0.00 0.00 0.01 0.00
0.07 0.08 0.07 0.06 0.07 0.11 0.23 0.47 0.57 0.55 0.86 2.49 3.02 1.08 0.54 0.59 0.19 0.01 0.00 0.00 0.00 0.00 0.00 0.00 0.00 0.01 0.00 0.00 0.01 0.00 0.01 0.02 0.00 0.00 0.00 0.02 0.01 0.00 0.00 0.00 0.00 0.00 0.00 0.00 0.00 0.00 0.01
0.12 0.11 0.12 0.11 0.10 0.10 0.16 0.31 0.69 0.93 1.25 3.11 2.97 0.48 0.13 0.07 0.03 0.06 0.04 0.02 0.00 0.00 0.00 0.00 0.00 0.00 0.00 0.00 0.01 0.03 0.03 0.07 0.05 0.01 0.01 0.02 0.01 0.00 0.00 0.00 0.00 0.00 0.00 0.00 0.00 0.00 0.00
0.16 0.17 0.17 0.15 0.13 0.13 0.20 0.29 0.44 1.01 2.01 3.85 2.35 0.22 0.15 0.12 0.07 0.16 0.07 0.01 0.00 0.00 0.00 0.00 0.00 0.00 0.01 0.00 0.02 0.13 0.07 0.05 0.11 0.12 0.06 0.07 0.08 0.05 0.02 0.00 0.00 0.01 0.00 0.00 0.00 0.00 0.00
0.17 0.21 0.28 0.29 0.25 0.22 0.28 0.32 0.44 0.68 1.94 2.67 1.48 0.16 0.39 0.50 0.16 0.05 0.00 0.00 0.00 0.00 0.00 0.00 0.00 0.00 0.01 0.01 0.07 0.21 0.12 0.05 0.14 0.11 0.18 0.18 0.13 0.14 0.07 0.02 0.11 0.04 0.00 0.00 0.00 0.00 0.00
0.16 0.18 0.24 0.29 0.31 0.34 0.39 0.39 0.46 0.58 1.00 1.99 1.30 0.31 0.17 0.28 0.13 0.04 0.00 0.00 0.00 0.01 0.00 0.00 0.00 0.00 0.00 0.03 0.09 0.17 0.17 0.13 0.11 0.22 0.21 0.17 0.21 0.33 0.16 0.07 0.05 0.00 0.00 0.00 0.00 0.00 0.00
0.26 0.21 0.19 0.22 0.23 0.32 0.47 0.47 0.45 0.46 0.71 1.27 1.45 0.75 0.43 0.28 0.15 0.02 0.02 0.01 0.01 0.02 0.03 0.00 0.01 0.01 0.01 0.06 0.13 0.13 0.15 0.09 0.09 0.09 0.22 0.36 0.25 0.29 0.29 0.17 0.07 0.00 0.00 0.00 0.00 0.00 0.00
0.27 0.22 0.20 0.19 0.23 0.25 0.34 0.48 0.49 0.46 0.64 0.85 1.13 0.71 1.22 0.90 0.16 0.08 0.11 0.05 0.01 0.02 0.06 0.01 0.03 0.05 0.07 0.14 0.11 0.04 0.02 0.03 0.05 0.06 0.09 0.26 0.38 0.33 0.30 0.24 0.04 0.00 0.00 0.01 0.02 0.01 0.00
0.24 0.21 0.20 0.22 0.31 0.26 0.24 0.34 0.47 0.56 0.68 0.81 0.85 0.39 0.94 1.12 0.31 0.15 0.18 0.16 0.03 0.04 0.09 0.03 0.14 0.12 0.20 0.14 0.06 0.02 0.00 0.00 0.01 0.01 0.02 0.08 0.20 0.27 0.32 0.28 0.10 0.02 0.08 0.12 0.04 0.01 0.00
0.19 0.18 0.20 0.27 0.32 0.31 0.27 0.26 0.37 0.62 0.78 0.88 1.03 0.40 0.55 0.94 0.60 0.31 0.17 0.20 0.08 0.03 0.04 0.05 0.04 0.02 0.06 0.10 0.04 0.01 0.01 0.01 0.00 0.00 0.00 0.02 0.03 0.05 0.07 0.05 0.01 0.03 0.08 0.09 0.08 0.06 0.04

GFSGBSN_prec_precacc24_078.txt.gz
Total_Precipitation_Accumulation
0.03 0.02 0.02 0.02 0.02 0.02 0.01 0.02 0.02 0.01 0.00 0.00 0.00 0.00 0.00 0.00 0.00 0.00 0.00 0.00 0.00 0.00 0.00 0.00 0.00 0.00 0.00 0.00 0.00 0.00 0.00 0.00 0.00 0.00 0.00 0.00 0.00 0.00 0.00 0.00 0.00 0.00 0.00 0.00 0.00 0.00 0.00
0.03 0.04 0.04 0.03 0.02 0.02 0.02 0.02 0.02 0.01 0.01 0.00 0.00 0.00 0.00 0.00 0.00 0.00 0.00 0.00 0.00 0.00 0.00 0.00 0.00 0.00 0.00 0.00 0.00 0.00 0.00 0.00 0.00 0.00 0.00 0.00 0.00 0.00 0.00 0.00 0.00 0.00 0.00 0.00 0.00 0.00 0.00
0.03 0.03 0.04 0.04 0.04 0.03 0.02 0.02 0.01 0.01 0.01 0.01 0.01 0.00 0.00 0.00 0.00 0.00 0.00 0.00 0.00 0.00 0.00 0.00 0.00 0.01 0.00 0.00 0.00 0.00 0.00 0.00 0.00 0.00 0.00 0.00 0.00 0.00 0.00 0.00 0.00 0.00 0.00 0.00 0.03 0.00 0.00
0.04 0.04 0.04 0.04 0.05 0.04 0.02 0.02 0.01 0.01 0.02 0.01 0.01 0.01 0.00 0.00 0.00 0.00 0.00 0.00 0.00 0.00 0.00 0.00 0.00 0.01 0.00 0.00 0.00 0.00 0.00 0.00 0.00 0.00 0.00 0.00 0.00 0.00 0.00 0.00 0.00 0.00 0.00 0.01 0.15 0.02 0.00
0.04 0.03 0.03 0.04 0.03 0.03 0.03 0.02 0.02 0.02 0.01 0.01 0.01 0.01 0.00 0.00 0.00 0.00 0.00 0.00 0.00 0.00 0.00 0.00 0.00 0.00 0.00 0.00 0.00 0.00 0.00 0.00 0.00 0.00 0.00 0.00 0.00 0.00 0.00 0.00 0.00 0.00 0.00 0.00 0.01 0.01 0.01
0.03 0.04 0.03 0.04 0.03 0.03 0.03 0.03 0.02 0.02 0.02 0.02 0.01 0.01 0.00 0.00 0.00 0.00 0.00 0.00 0.00 0.00 0.00 0.00 0.01 0.00 0.00 0.00 0.00 0.00 0.00 0.00 0.00 0.00 0.00 0.00 0.00 0.00 0.00 0.00 0.00 0.00 0.00 0.00 0.01 0.01 0.00
0.03 0.04 0.04 0.03 0.03 0.02 0.03 0.03 0.04 0.03 0.03 0.03 0.02 0.02 0.00 0.00 0.00 0.00 0.00 0.00 0.00 0.00 0.00 0.00 0.00 0.00 0.00 0.00 0.00 0.00 0.00 0.00 0.00 0.00 0.00 0.00 0.00 0.00 0.00 0.00 0.00 0.00 0.00 0.00 0.00 0.00 0.00
0.04 0.04 0.03 0.03 0.03 0.03 0.04 0.05 0.04 0.04 0.03 0.03 0.02 0.01 0.01 0.01 0.01 0.00 0.00 0.00 0.00 0.00 0.00 0.00 0.00 0.00 0.00 0.00 0.00 0.00 0.00 0.00 0.00 0.00 0.00 0.00 0.00 0.00 0.00 0.00 0.00 0.00 0.00 0.00 0.00 0.00 0.00
0.04 0.04 0.03 0.03 0.03 0.03 0.03 0.04 0.04 0.04 0.04 0.03 0.02 0.02 0.01 0.01 0.00 0.00 0.00 0.00 0.00 0.00 0.00 0.00 0.00 0.00 0.00 0.00 0.00 0.00 0.00 0.00 0.00 0.00 0.00 0.00 0.00 0.00 0.00 0.00 0.00 0.00 0.00 0.00 0.00 0.00 0.00
0.05 0.06 0.04 0.04 0.04 0.03 0.03 0.03 0.03 0.02 0.02 0.02 0.01 0.01 0.01 0.01 0.00 0.00 0.00 0.00 0.00 0.00 0.01 0.00 0.00 0.00 0.00 0.00 0.00 0.00 0.00 0.00 0.00 0.00 0.00 0.00 0.00 0.00 0.00 0.00 0.00 0.00 0.00 0.00 0.00 0.00 0.00
0.06 0.06 0.07 0.07 0.07 0.05 0.03 0.03 0.03 0.02 0.01 0.03 0.03 0.03 0.03 0.03 0.00 0.00 0.00 0.00 0.00 0.01 0.00 0.00 0.00 0.00 0.00 0.00 0.00 0.00 0.00 0.00 0.00 0.00 0.00 0.00 0.00 0.00 0.00 0.00 0.00 0.00 0.00 0.00 0.00 0.00 0.00
0.05 0.05 0.06 0.06 0.07 0.05 0.04 0.04 0.04 0.03 0.02 0.03 0.05 0.06 0.10 0.05 0.01 0.00 0.00 0.01 0.03 0.02 0.00 0.00 0.00 0.00 0.00 0.00 0.00 0.00 0.00 0.00 0.00 0.00 0.00 0.00 0.00 0.00 0.00 0.00 0.00 0.00 0.00 0.00 0.00 0.00 0.00
0.05 0.04 0.04 0.05 0.06 0.07 0.07 0.06 0.05 0.04 0.04 0.02 0.03 0.08 0.15 0.04 0.01 0.00 0.01 0.10 0.10 0.01 0.00 0.00 0.00 0.00 0.00 0.00 0.00 0.00 0.00 0.00 0.00 0.00 0.01 0.00 0.00 0.00 0.00 0.00 0.00 0.00 0.00 0.01 0.06 0.01 0.00
0.08 0.07 0.06 0.06 0.06 0.07 0.07 0.07 0.06 0.06 0.07 0.07 0.08 0.13 0.11 0.05 0.01 0.02 0.08 0.18 0.05 0.00 0.00 0.00 0.00 0.00 0.00 0.00 0.00 0.00 0.00 0.00 0.00 0.00 0.00 0.01 0.01 0.00 0.00 0.00 0.00 0.00 0.00 0.02 0.10 0.08 0.05
0.08 0.07 0.06 0.06 0.06 0.07 0.08 0.08 0.07 0.08 0.09 0.10 0.21 0.19 0.16 0.05 0.02 0.07 0.28 0.35 0.02 0.00 0.00 0.00 0.00 0.00 0.00 0.00 0.00 0.00 0.00 0.00 0.00 0.00 0.00 0.00 0.00 0.00 0.00 0.00 0.00 0.00 0.00 0.00 0.01 0.02 0.04
0.09 0.10 0.09 0.07 0.06 0.06 0.08 0.09 0.10 0.11 0.16 0.26 0.33 0.27 0.09 0.04 0.11 0.25 0.46 0.21 0.00 0.00 0.00 0.00 0.00 0.00 0.00 0.00 0.00 0.00 0.00 0.00 0.00 0.00 0.00 0.00 0.00 0.00 0.00 0.00 0.00 0.00 0.00 0.00 0.00 0.07 0.06
0.09 0.08 0.09 0.09 0.08 0.08 0.09 0.12 0.13 0.13 0.17 0.42 0.72 0.65 0.16 0.07 0.39 0.57 0.45 0.06 0.00 0.00 0.00 0.00 0.00 0.00 0.00 0.00 0.00 0.01 0.00 0.00 0.00 0.00 0.00 0.00 0.00 0.00 0.00 0.00 0.00 0.00 0.00 0.00 0.00 0.00 0.05
0.12 0.14 0.14 0.11 0.07 0.07 0.09 0.13 0.16 0.16 0.28 0.98 1.44 0.94 0.19 0.17 0.57 0.49 0.17 0.01 0.00 0.00 0.00 0.00 0.00 0.00 0.00 0.00 0.00 0.01 0.00 0.00 0.00 0.00 0.00 0.00 0.00 0.00 0.00 0.00 0.00 0.00 0.00 0.00 0.00 0.00 0.01
0.08 0.08 0.08 0.12 0.18 0.16 0.13 0.16 0.21 0.22 0.48 1.33 1.82 0.82 0.54 0.21 0.32 0.17 0.09 0.01 0.00 0.00 0.00 0.00 0.00 0.00 0.00 0.00 0.00 0.00 0.00 0.00 0.00 0.00 0.00 0.00 0.00 0.00 0.00 0.00 0.00 0.00 0.00 0.00 0.00 0.00 0.01
0.05 0.05 0.05 0.06 0.09 0.17 0.28 0.27 0.28 0.35 0.61 1.71 2.15 1.18 1.15 1.04 0.17 0.01 0.04 0.02 0.00 0.00 0.00 0.00 0.00 0.00 0.00 0.00 0.00 0.00 0.00 0.00 0.00 0.00 0.00 0.00 0.00 0.00 0.00 0.00 0.00 0.00 0.00 0.00 0.00 0.01 0.00
0.07 0.07 0.05 0.05 0.06 0.08 0.16 0.36 0.43 0.46 0.77 2.49 2.91 1.03 0.47 0.63 0.31 0.07 0.02 0.01 0.00 0.00 0.00 0.00 0.00 0.01 0.00 0.00 0.01 0.00 0.01 0.02 0.00 0.00 0.00 0.02 0.01 0.00 0.00 0.00 0.00 0.00 0.00 0.00 0.00 0.00 0.01
0.12 0.11 0.10 0.09 0.09 0.08 0.09 0.16 0.48 0.77 1.14 3.11 2.90 0.49 0.15 0.09 0.08 0.12 0.10 0.05 0.00 0.00 0.00 0.00 0.00 0.00 0.00 0.00 0.01 0.02 0.03 0.07 0.05 0.01 0.01 0.02 0.01 0.00 0.00 0.00 0.00 0.00 0.00 0.00 0.00 0.00 0.00
0.18 0.18 0.17 0.15 0.13 0.12 0.11 0.11 0.17 0.78 1.83 3.78 2.35 0.23 0.19 0.16 0.09 0.28 0.23 0.02 0.00 0.00 0.00 0.00 0.00 0.00 0.00 0.00 0.02 0.12 0.07 0.05 0.11 0.12 0.06 0.07 0.08 0.05 0.02 0.00 0.00 0.01 0.00 0.00 0.00 0.00 0.00
0.16 0.20 0.24 0.27 0.25 0.20 0.18 0.15 0.17 0.44 1.72 2.63 1.49 0.18 0.41 0.51 0.19 0.08 0.03 0.01 0.01 0.00 0.00 0.00 0.00 0.00 0.01 0.01 0.07 0.21 0.12 0.05 0.14 0.11 0.18 0.18 0.13 0.15 0.08 0.03 0.11 0.04 0.00 0.00 0.00 0.00 0.00
0.13 0.15 0.18 0.24 0.32 0.33 0.27 0.23 0.23 0.41 0.91 1.99 1.33 0.35 0.19 0.28 0.12 0.06 0.03 0.02 0.01 0.00 0.00 0.00 0.00 0.00 0.00 0.04 0.10 0.18 0.17 0.12 0.11 0.22 0.21 0.17 0.21 0.33 0.16 0.08 0.05 0.00 0.00 0.00 0.00 0.00 0.00
0.16 0.15 0.15 0.17 0.21 0.28 0.37 0.36 0.33 0.43 0.70 1.28 1.47 0.78 0.46 0.32 0.16 0.02 0.04 0.05 0.03 0.02 0.04 0.01 0.04 0.02 0.02 0.10 0.17 0.15 0.15 0.08 0.09 0.09 0.22 0.36 0.25 0.29 0.31 0.19 0.07 0.00 0.00 0.00 0.00 0.00 0.00
0.17 0.16 0.16 0.17 0.19 0.18 0.27 0.41 0.46 0.47 0.65 0.89 1.17 0.74 1.25 0.96 0.15 0.04 0.08 0.06 0.02 0.03 0.10 0.03 0.08 0.08 0.10 0.18 0.14 0.05 0.03 0.03 0.04 0.07 0.09 0.26 0.39 0.34 0.31 0.25 0.04 0.00 0.00 0.01 0.02 0.01 0.00
0.20 0.18 0.18 0.20 0.24 0.20 0.18 0.30 0.44 0.55 0.72 0.94 0.92 0.42 0.96 1.17 0.29 0.09 0.12 0.11 0.04 0.06 0.12 0.06 0.24 0.21 0.27 0.19 0.08 0.03 0.01 0.01 0.01 0.01 0.03 0.08 0.20 0.29 0.33 0.30 0.11 0.02 0.09 0.13 0.04 0.01 0.00
0.18 0.18 0.19 0.23 0.24 0.25 0.21 0.23 0.35 0.62 0.84 1.02 1.12 0.45 0.57 0.96 0.61 0.19 0.13 0.17 0.07 0.04 0.09 0.11 0.07 0.03 0.06 0.12 0.05 0.02 0.02 0.01 0.00 0.00 0.00 0.03 0.03 0.06 0.08 0.05 0.02 0.04 0.08 0.09 0.08 0.06 0.04

GFSGBSN_prec_precacc24_081.txt.gz
Total_Precipitation_Accumulation
0.02 0.02 0.02 0.02 0.02 0.02 0.02 0.02 0.02 0.01 0.00 0.00 0.00 0.00 0.00 0.00 0.00 0.00 0.00 0.00 0.00 0.00 0.00 0.00 0.00 0.00 0.00 0.00 0.00 0.00 0.00 0.00 0.00 0.00 0.00 0.00 0.00 0.00 0.00 0.00 0.00 0.00 0.00 0.00 0.00 0.00 0.00
0.03 0.03 0.03 0.03 0.03 0.03 0.03 0.02 0.02 0.01 0.01 0.01 0.00 0.00 0.00 0.00 0.00 0.00 0.00 0.00 0.00 0.00 0.00 0.00 0.00 0.00 0.00 0.00 0.00 0.00 0.00 0.00 0.00 0.00 0.00 0.00 0.00 0.00 0.00 0.00 0.00 0.00 0.00 0.00 0.00 0.00 0.00
0.04 0.04 0.04 0.04 0.04 0.03 0.02 0.02 0.01 0.01 0.02 0.02 0.01 0.00 0.00 0.00 0.00 0.00 0.00 0.00 0.00 0.00 0.00 0.00 0.00 0.01 0.00 0.00 0.00 0.00 0.00 0.00 0.00 0.00 0.00 0.00 0.00 0.00 0.00 0.00 0.00 0.00 0.00 0.00 0.02 0.00 0.00
0.04 0.04 0.05 0.05 0.04 0.03 0.02 0.02 0.01 0.01 0.02 0.01 0.01 0.01 0.00 0.00 0.00 0.00 0.00 0.00 0.00 0.00 0.00 0.00 0.00 0.01 0.00 0.00 0.00 0.00 0.00 0.00 0.00 0.00 0.00 0.00 0.00 0.00 0.00 0.00 0.00 0.00 0.00 0.00 0.02 0.01 0.00
0.04 0.04 0.04 0.05 0.04 0.03 0.02 0.02 0.02 0.01 0.01 0.01 0.00 0.01 0.00 0.00 0.00 0.00 0.00 0.00 0.00 0.00 0.00 0.00 0.00 0.00 0.00 0.00 0.00 0.00 0.00 0.00 0.00 0.00 0.00 0.00 0.00 0.00 0.00 0.00 0.00 0.00 0.00 0.00 0.00 0.00 0.00
0.03 0.04 0.04 0.05 0.04 0.03 0.03 0.02 0.02 0.02 0.03 0.02 0.01 0.01 0.00 0.00 0.00 0.00 0.00 0.00 0.00 0.00 0.00 0.00 0.01 0.00 0.00 0.00 0.00 0.00 0.00 0.00 0.00 0.00 0.00 0.00 0.00 0.00 0.00 0.00 0.00 0.00 0.00 0.00 0.00 0.00 0.00
0.04 0.04 0.04 0.04 0.04 0.03 0.03 0.03 0.03 0.03 0.03 0.03 0.03 0.02 0.00 0.00 0.00 0.00 0.00 0.00 0.00 0.00 0.00 0.00 0.00 0.00 0.00 0.00 0.00 0.00 0.00 0.00 0.00 0.00 0.00 0.00 0.00 0.00 0.00 0.00 0.00 0.00 0.00 0.00 0.00 0.00 0.00
0.05 0.04 0.03 0.04 0.04 0.04 0.04 0.05 0.04 0.03 0.03 0.03 0.03 0.01 0.00 0.01 0.01 0.00 0.00 0.00 0.00 0.00 0.00 0.00 0.00 0.00 0.00 0.00 0.00 0.00 0.00 0.00 0.00 0.00 0.00 0.00 0.00 0.00 0.00 0.00 0.00 0.00 0.00 0.00 0.00 0.00 0.00
0.05 0.05 0.04 0.03 0.03 0.03 0.03 0.04 0.04 0.04 0.04 0.03 0.02 0.02 0.01 0.01 0.00 0.00 0.00 0.00 0.00 0.00 0.00 0.00 0.00 0.00 0.00 0.00 0.00 0.00 0.00 0.00 0.00 0.00 0.00 0.00 0.00 0.00 0.00 0.00 0.00 0.00 0.00 0.00 0.00 0.00 0.00
0.06 0.07 0.05 0.04 0.05 0.04 0.04 0.04 0.03 0.02 0.02 0.01 0.01 0.01 0.01 0.01 0.00 0.00 0.00 0.00 0.00 0.00 0.01 0.00 0.00 0.00 0.00 0.00 0.00 0.00 0.00 0.00 0.01 0.00 0.00 0.00 0.00 0.00 0.00 0.00 0.00 0.00 0.00 0.00 0.00 0.00 0.00
0.08 0.07 0.08 0.08 0.08 0.07 0.04 0.03 0.03 0.02 0.02 0.03 0.02 0.03 0.03 0.03 0.01 0.00 0.00 0.00 0.00 0.01 0.00 0.00 0.00 0.00 0.00 0.00 0.00 0.00 0.00 0.00 0.00 0.00 0.00 0.00 0.00 0.00 0.00 0.00 0.00 0.00 0.00 0.00 0.00 0.00 0.00
0.05 0.05 0.06 0.06 0.07 0.06 0.05 0.05 0.03 0.03 0.03 0.03 0.04 0.05 0.10 0.06 0.04 0.01 0.00 0.01 0.03 0.03 0.00 0.00 0.00 0.00 0.00 0.00 0.00 0.00 0.00 0.00 0.00 0.01 0.00 0.00 0.00 0.00 0.00 0.00 0.00 0.00 0.00 0.00 0.00 0.00 0.00
0.05 0.05 0.05 0.05 0.07 0.07 0.08 0.08 0.06 0.05 0.04 0.02 0.03 0.07 0.14 0.05 0.02 0.00 0.01 0.08 0.09 0.01 0.00 0.00 0.00 0.00 0.00 0.00 0.00 0.00 0.00 0.00 0.00 0.01 0.01 0.00 0.00 0.00 0.00 0.00 0.00 0.00 0.00 0.00 0.03 0.01 0.00
0.09 0.07 0.07 0.07 0.08 0.08 0.08 0.09 0.08 0.06 0.07 0.07 0.08 0.12 0.09 0.04 0.03 0.01 0.04 0.14 0.05 0.00 0.00 0.00 0.00 0.00 0.00 0.00 0.00 0.00 0.00 0.00 0.00 0.00 0.01 0.03 0.02 0.00 0.00 0.00 0.00 0.00 0.00 0.00 0.04 0.05 0.04
0.09 0.08 0.07 0.06 0.07 0.07 0.09 0.10 0.09 0.08 0.09 0.11 0.21 0.17 0.14 0.04 0.06 0.08 0.12 0.28 0.02 0.00 0.00 0.00 0.00 0.00 0.00 0.00 0.00 0.00 0.00 0.00 0.00 0.00 0.01 0.00 0.00 0.00 0.00 0.00 0.00 0.00 0.00 0.00 0.01 0.02 0.03
0.09 0.09 0.09 0.08 0.08 0.07 0.08 0.09 0.11 0.11 0.16 0.25 0.31 0.26 0.08 0.04 0.16 0.23 0.28 0.13 0.00 0.00 0.00 0.00 0.00 0.00 0.00 0.00 0.00 0.00 0.01 0.00 0.00 0.00 0.00 0.00 0.00 0.00 0.00 0.00 0.00 0.00 0.00 0.00 0.00 0.05 0.05
0.07 0.07 0.07 0.08 0.09 0.09 0.10 0.11 0.13 0.13 0.17 0.39 0.69 0.63 0.14 0.06 0.41 0.52 0.38 0.04 0.00 0.00 0.00 0.00 0.00 0.00 0.00 0.00 0.00 0.01 0.02 0.00 0.00 0.00 0.00 0.00 0.00 0.01 0.00 0.00 0.00 0.00 0.00 0.00 0.00 0.00 0.03
0.08 0.08 0.07 0.07 0.08 0.08 0.10 0.12 0.16 0.16 0.27 0.92 1.42 0.93 0.19 0.18 0.55 0.47 0.17 0.01 0.00 0.00 0.00 0.00 0.00 0.00 0.00 0.00 0.00 0.01 0.01 0.00 0.00 0.00 0.00 0.00 0.00 0.00 0.00 0.00 0.00 0.00 0.00 0.00 0.00 0.00 0.01
0.08 0.08 0.07 0.07 0.09 0.14 0.12 0.15 0.20 0.21 0.46 1.26 1.78 0.80 0.49 0.28 0.30 0.16 0.11 0.02 0.00 0.00 0.00 0.00 0.00 0.00 0.00 0.00 0.00 0.00 0.00 0.00 0.00 0.00 0.00 0.00 0.00 0.00 0.02 0.00 0.00 0.00 0.00 0.00 0.00 0.00 0.01
0.07 0.06 0.05 0.05 0.07 0.09 0.19 0.23 0.24 0.32 0.55 1.63 2.09 1.12 1.03 1.05 0.22 0.04 0.06 0.03 0.01 0.00 0.00 0.00 0.00 0.00 0.00 0.00 0.00 0.00 0.00 0.00 0.00 0.00 0.00 0.00 0.02 0.02 0.03 0.01 0.00 0.00 0.00 0.00 0.00 0.01 0.00
0.09 0.08 0.07 0.05 0.05 0.07 0.09 0.25 0.35 0.38 0.68 2.30 2.73 0.97 0.41 0.61 0.31 0.09 0.06 0.05 0.01 0.00 0.00 0.00 0.00 0.01 0.00 0.00 0.01 0.00 0.01 0.02 0.00 0.00 0.00 0.02 0.01 0.01 0.02 0.01 0.00 0.00 0.00 0.00 0.00 0.00 0.01
0.15 0.13 0.11 0.09 0.08 0.08 0.08 0.12 0.41 0.57 0.97 2.76 2.67 0.49 0.17 0.11 0.11 0.15 0.16 0.14 0.02 0.00 0.00 0.00 0.00 0.00 0.00 0.00 0.01 0.03 0.03 0.07 0.05 0.01 0.01 0.02 0.01 0.00 0.00 0.00 0.00 0.00 0.00 0.00 0.00 0.00 0.00
0.19 0.19 0.20 0.20 0.19 0.15 0.11 0.10 0.15 0.59 1.42 3.21 2.13 0.26 0.23 0.17 0.09 0.31 0.30 0.06 0.03 0.02 0.02 0.00 0.00 0.01 0.01 0.00 0.02 0.12 0.07 0.05 0.11 0.12 0.06 0.07 0.08 0.05 0.02 0.00 0.00 0.01 0.00 0.00 0.00 0.00 0.00
0.14 0.17 0.20 0.24 0.27 0.24 0.20 0.15 0.15 0.27 1.24 2.15 1.38 0.19 0.42 0.50 0.18 0.08 0.05 0.06 0.06 0.05 0.04 0.01 0.00 0.00 0.01 0.01 0.06 0.21 0.11 0.05 0.14 0.11 0.18 0.18 0.13 0.16 0.08 0.03 0.11 0.04 0.00 0.00 0.00 0.00 0.00
0.13 0.15 0.17 0.20 0.29 0.35 0.33 0.26 0.22 0.26 0.54 1.67 1.34 0.39 0.20 0.27 0.12 0.07 0.04 0.05 0.05 0.05 0.04 0.02 0.01 0.00 0.01 0.05 0.11 0.19 0.17 0.11 0.11 0.21 0.21 0.17 0.21 0.33 0.16 0.08 0.05 0.00 0.00 0.00 0.00 0.00 0.00
0.13 0.12 0.13 0.14 0.16 0.26 0.39 0.41 0.32 0.30 0.39 1.06 1.45 0.80 0.51 0.35 0.16 0.01 0.03 0.05 0.05 0.06 0.08 0.03 0.04 0.02 0.05 0.13 0.20 0.16 0.17 0.09 0.09 0.09 0.22 0.36 0.25 0.28 0.31 0.20 0.07 0.00 0.00 0.00 0.00 0.00 0.00
0.14 0.14 0.14 0.14 0.14 0.16 0.27 0.45 0.49 0.43 0.44 0.74 1.15 0.75 1.31 1.00 0.16 0.05 0.05 0.06 0.05 0.10 0.16 0.06 0.10 0.12 0.17 0.24 0.19 0.08 0.06 0.04 0.05 0.09 0.09 0.26 0.39 0.35 0.30 0.26 0.05 0.00 0.00 0.01 0.03 0.02 0.00
0.14 0.16 0.17 0.17 0.18 0.18 0.19 0.30 0.49 0.59 0.58 0.90 0.92 0.44 0.98 1.18 0.28 0.08 0.09 0.09 0.05 0.11 0.20 0.10 0.27 0.25 0.35 0.24 0.12 0.06 0.03 0.02 0.01 0.03 0.04 0.09 0.20 0.29 0.32 0.29 0.11 0.02 0.10 0.15 0.06 0.01 0.00
0.17 0.17 0.18 0.20 0.20 0.23 0.21 0.21 0.34 0.54 0.77 1.10 1.25 0.47 0.58 0.95 0.58 0.18 0.08 0.06 0.06 0.08 0.15 0.16 0.07 0.05 0.07 0.15 0.08 0.05 0.03 0.02 0.01 0.01 0.01 0.06 0.02 0.06 0.08 0.06 0.02 0.05 0.10 0.10 0.08 0.06 0.04

GFSGBSN_prec_precacc24_084.txt.gz
Total_Precipitation_Accumulation
0.02 0.01 0.01 0.02 0.02 0.01 0.02 0.02 0.02 0.01 0.00 0.00 0.00 0.00 0.00 0.00 0.00 0.00 0.00 0.00 0.00 0.00 0.00 0.00 0.00 0.00 0.00 0.00 0.00 0.00 0.00 0.00 0.00 0.00 0.00 0.00 0.00 0.00 0.00 0.00 0.00 0.00 0.00 0.00 0.00 0.00 0.00
0.03 0.03 0.03 0.03 0.02 0.03 0.02 0.02 0.01 0.01 0.01 0.01 0.00 0.00 0.00 0.00 0.00 0.00 0.00 0.00 0.00 0.00 0.00 0.00 0.00 0.00 0.00 0.00 0.00 0.00 0.00 0.00 0.00 0.00 0.00 0.00 0.00 0.00 0.00 0.00 0.00 0.00 0.00 0.00 0.00 0.00 0.00
0.05 0.04 0.04 0.04 0.04 0.03 0.02 0.01 0.01 0.01 0.01 0.02 0.01 0.00 0.00 0.00 0.00 0.00 0.00 0.00 0.00 0.00 0.00 0.00 0.00 0.01 0.00 0.00 0.00 0.00 0.00 0.00 0.00 0.00 0.00 0.00 0.00 0.00 0.00 0.00 0.00 0.00 0.00 0.00 0.00 0.00 0.00
0.04 0.05 0.05 0.06 0.05 0.04 0.02 0.01 0.01 0.01 0.02 0.01 0.01 0.00 0.00 0.00 0.00 0.00 0.00 0.00 0.00 0.00 0.00 0.00 0.00 0.01 0.00 0.00 0.00 0.00 0.00 0.00 0.00 0.00 0.00 0.00 0.00 0.00 0.00 0.00 0.00 0.00 0.00 0.00 0.00 0.00 0.00
0.04 0.04 0.04 0.05 0.05 0.04 0.02 0.02 0.02 0.01 0.01 0.01 0.00 0.01 0.01 0.00 0.00 0.00 0.00 0.00 0.00 0.00 0.00 0.00 0.00 0.00 0.00 0.00 0.00 0.00 0.00 0.00 0.00 0.00 0.00 0.00 0.00 0.00 0.00 0.00 0.00 0.00 0.00 0.00 0.00 0.00 0.00
0.03 0.04 0.04 0.05 0.04 0.04 0.03 0.03 0.02 0.02 0.02 0.02 0.01 0.01 0.00 0.00 0.00 0.00 0.00 0.00 0.00 0.00 0.00 0.00 0.01 0.00 0.00 0.00 0.00 0.00 0.00 0.00 0.00 0.00 0.00 0.00 0.00 0.00 0.00 0.00 0.00 0.00 0.00 0.00 0.00 0.00 0.00
0.04 0.04 0.04 0.05 0.05 0.04 0.04 0.04 0.03 0.04 0.03 0.03 0.03 0.02 0.00 0.00 0.00 0.00 0.00 0.00 0.00 0.00 0.00 0.00 0.00 0.00 0.00 0.00 0.00 0.00 0.00 0.00 0.00 0.00 0.00 0.00 0.00 0.00 0.00 0.00 0.00 0.00 0.00 0.00 0.00 0.00 0.00
0.05 0.04 0.04 0.04 0.04 0.04 0.04 0.05 0.05 0.04 0.03 0.03 0.03 0.01 0.00 0.01 0.00 0.00 0.00 0.00 0.00 0.00 0.00 0.00 0.00 0.00 0.00 0.00 0.00 0.00 0.00 0.00 0.00 0.00 0.00 0.00 0.02 0.00 0.00 0.00 0.00 0.00 0.00 0.00 0.00 0.00 0.00
0.06 0.05 0.05 0.05 0.05 0.04 0.04 0.04 0.04 0.04 0.04 0.03 0.02 0.01 0.01 0.01 0.00 0.00 0.00 0.00 0.00 0.00 0.00 0.00 0.00 0.00 0.00 0.00 0.00 0.00 0.00 0.00 0.00 0.01 0.01 0.03 0.01 0.00 0.00 0.00 0.00 0.00 0.00 0.00 0.00 0.00 0.00
0.07 0.06 0.05 0.05 0.06 0.05 0.06 0.05 0.05 0.03 0.02 0.02 0.01 0.01 0.01 0.01 0.00 0.00 0.00 0.00 0.00 0.00 0.01 0.00 0.00 0.00 0.00 0.00 0.00 0.00 0.00 0.00 0.01 0.01 0.02 0.03 0.00 0.00 0.01 0.01 0.00 0.00 0.00 0.00 0.00 0.00 0.00
0.08 0.09 0.09 0.08 0.08 0.08 0.06 0.04 0.04 0.03 0.02 0.03 0.02 0.03 0.03 0.03 0.01 0.00 0.00 0.00 0.00 0.01 0.00 0.00 0.00 0.00 0.00 0.00 0.00 0.00 0.00 0.00 0.00 0.00 0.04 0.04 0.00 0.02 0.02 0.00 0.00 0.00 0.00 0.00 0.00 0.00 0.00
0.06 0.06 0.06 0.06 0.06 0.06 0.05 0.06 0.05 0.04 0.03 0.03 0.04 0.05 0.09 0.05 0.05 0.01 0.00 0.00 0.02 0.03 0.00 0.00 0.00 0.00 0.00 0.00 0.00 0.00 0.00 0.00 0.00 0.01 0.02 0.01 0.00 0.03 0.01 0.00 0.00 0.01 0.00 0.00 0.00 0.00 0.00
0.06 0.05 0.05 0.06 0.08 0.07 0.08 0.09 0.07 0.05 0.04 0.03 0.03 0.07 0.13 0.04 0.02 0.00 0.00 0.04 0.08 0.02 0.00 0.00 0.00 0.00 0.00 0.00 0.00 0.00 0.00 0.00 0.00 0.01 0.01 0.01 0.00 0.00 0.00 0.00 0.00 0.00 0.00 0.01 0.01 0.00 0.00
0.09 0.07 0.07 0.08 0.08 0.08 0.09 0.09 0.08 0.07 0.07 0.07 0.09 0.13 0.09 0.04 0.03 0.03 0.03 0.10 0.05 0.00 0.00 0.00 0.00 0.00 0.00 0.00 0.00 0.00 0.00 0.00 0.00 0.00 0.01 0.06 0.03 0.01 0.00 0.00 0.00 0.00 0.00 0.01 0.01 0.01 0.00
0.09 0.08 0.08 0.08 0.09 0.08 0.09 0.10 0.10 0.09 0.10 0.11 0.19 0.16 0.13 0.04 0.07 0.11 0.13 0.24 0.02 0.00 0.00 0.00 0.00 0.00 0.00 0.00 0.00 0.00 0.00 0.00 0.00 0.00 0.01 0.01 0.01 0.00 0.00 0.00 0.01 0.01 0.00 0.00 0.02 0.01 0.02
0.09 0.09 0.09 0.09 0.09 0.08 0.08 0.10 0.11 0.11 0.13 0.21 0.28 0.25 0.07 0.04 0.17 0.23 0.25 0.11 0.00 0.00 0.00 0.00 0.00 0.00 0.00 0.00 0.00 0.00 0.01 0.01 0.00 0.00 0.00 0.00 0.00 0.00 0.00 0.00 0.00 0.00 0.01 0.04 0.04 0.02 0.03
0.07 0.07 0.07 0.07 0.08 0.08 0.09 0.12 0.13 0.12 0.15 0.37 0.66 0.61 0.14 0.06 0.42 0.49 0.32 0.03 0.00 0.00 0.00 0.00 0.00 0.00 0.00 0.00 0.00 0.01 0.04 0.02 0.00 0.00 0.00 0.00 0.00 0.02 0.00 0.00 0.00 0.00 0.01 0.04 0.03 0.01 0.04
0.08 0.07 0.06 0.05 0.07 0.08 0.09 0.11 0.16 0.16 0.27 0.88 1.37 0.91 0.21 0.20 0.53 0.42 0.17 0.01 0.00 0.00 0.00 0.00 0.00 0.00 0.00 0.00 0.00 0.01 0.02 0.01 0.00 0.00 0.00 0.00 0.00 0.00 0.01 0.00 0.00 0.00 0.00 0.00 0.08 0.07 0.03
0.08 0.07 0.06 0.06 0.07 0.10 0.11 0.13 0.17 0.20 0.44 1.22 1.69 0.78 0.50 0.36 0.31 0.16 0.11 0.02 0.00 0.00 0.00 0.00 0.00 0.00 0.00 0.00 0.00 0.00 0.00 0.00 0.00 0.00 0.00 0.00 0.00 0.00 0.06 0.02 0.00 0.00 0.00 0.00 0.01 0.03 0.10
0.09 0.09 0.06 0.05 0.05 0.08 0.12 0.16 0.21 0.28 0.50 1.55 2.03 1.04 0.94 1.05 0.25 0.06 0.09 0.04 0.01 0.00 0.00 0.00 0.00 0.00 0.00 0.00 0.00 0.00 0.00 0.00 0.00 0.00 0.00 0.00 0.02 0.03 0.09 0.19 0.04 0.00 0.00 0.00 0.00 0.04 0.02
0.12 0.11 0.10 0.08 0.07 0.07 0.09 0.13 0.19 0.33 0.64 2.10 2.45 0.85 0.39 0.60 0.32 0.11 0.09 0.11 0.03 0.01 0.00 0.00 0.00 0.00 0.00 0.00 0.00 0.00 0.01 0.01 0.00 0.00 0.00 0.02 0.01 0.01 0.03 0.09 0.03 0.03 0.07 0.04 0.01 0.01 0.03
0.17 0.18 0.18 0.15 0.11 0.09 0.09 0.10 0.16 0.35 0.90 2.49 2.26 0.44 0.17 0.13 0.12 0.16 0.17 0.15 0.04 0.01 0.01 0.00 0.00 0.00 0.00 0.00 0.01 0.02 0.03 0.06 0.05 0.01 0.01 0.02 0.01 0.00 0.00 0.00 0.00 0.00 0.01 0.01 0.02 0.01 0.01
0.20 0.21 0.23 0.25 0.24 0.24 0.17 0.12 0.11 0.26 1.11 2.71 1.68 0.25 0.25 0.20 0.09 0.32 0.31 0.07 0.03 0.03 0.03 0.00 0.00 0.02 0.02 0.01 0.00 0.01 0.02 0.04 0.11 0.12 0.06 0.07 0.08 0.05 0.02 0.00 0.00 0.01 0.00 0.00 0.00 0.00 0.00
0.14 0.16 0.20 0.23 0.26 0.25 0.27 0.21 0.16 0.20 0.78 1.56 1.05 0.20 0.39 0.44 0.16 0.08 0.06 0.08 0.08 0.06 0.09 0.05 0.02 0.03 0.02 0.00 0.03 0.05 0.03 0.02 0.13 0.11 0.18 0.17 0.13 0.16 0.08 0.03 0.11 0.04 0.00 0.00 0.00 0.00 0.00
0.14 0.15 0.17 0.20 0.25 0.31 0.33 0.33 0.28 0.26 0.41 1.04 1.12 0.41 0.20 0.25 0.11 0.06 0.05 0.06 0.10 0.09 0.06 0.06 0.04 0.03 0.01 0.04 0.11 0.13 0.07 0.07 0.10 0.21 0.21 0.16 0.19 0.29 0.15 0.07 0.05 0.00 0.00 0.00 0.00 0.00 0.00
0.13 0.12 0.12 0.13 0.15 0.21 0.31 0.39 0.40 0.36 0.39 0.72 1.11 0.82 0.54 0.37 0.16 0.01 0.03 0.06 0.08 0.12 0.16 0.09 0.09 0.03 0.05 0.13 0.20 0.18 0.20 0.11 0.10 0.10 0.22 0.36 0.24 0.23 0.28 0.19 0.07 0.00 0.00 0.00 0.00 0.00 0.00
0.14 0.13 0.13 0.11 0.10 0.13 0.21 0.35 0.47 0.44 0.45 0.64 0.88 0.72 1.33 1.04 0.16 0.05 0.04 0.05 0.05 0.11 0.21 0.15 0.16 0.10 0.13 0.27 0.22 0.10 0.08 0.07 0.11 0.13 0.09 0.23 0.38 0.34 0.27 0.23 0.05 0.00 0.00 0.01 0.04 0.04 0.00
0.12 0.13 0.13 0.14 0.14 0.13 0.16 0.24 0.47 0.60 0.59 0.89 0.83 0.39 0.95 1.17 0.27 0.07 0.06 0.09 0.06 0.14 0.25 0.20 0.42 0.22 0.25 0.25 0.15 0.09 0.09 0.07 0.02 0.07 0.07 0.08 0.18 0.28 0.31 0.27 0.11 0.02 0.11 0.18 0.11 0.01 0.00
0.16 0.16 0.15 0.16 0.17 0.20 0.19 0.17 0.29 0.56 0.84 1.20 1.24 0.41 0.55 0.91 0.50 0.14 0.04 0.02 0.06 0.12 0.32 0.36 0.17 0.06 0.05 0.14 0.11 0.09 0.09 0.06 0.03 0.04 0.03 0.09 0.02 0.06 0.07 0.06 0.02 0.06 0.11 0.12 0.08 0.06 0.04